Time,TemperatureF,DewpointF,PressureIn,WindDirection,WindDirectionDegrees,WindSpeedMPH,WindSpeedGustMPH,Humidity,HourlyPrecipIn,Conditions,Clouds,dailyrainin,SoftwareType,DateUTC
2013-03-01 00:02:00,36.0,-99.9,-100.00,North,-999,-999.0,-999.0,-999,0.01,,,0.01,,2013-03-01 07:02:00,
2013-03-01 00:12:00,36.0,-99.9,-100.00,North,-999,-999.0,-999.0,-999,0.01,,,0.01,,2013-03-01 07:12:00,
2013-03-01 00:22:00,36.0,-99.9,-100.00,North,-999,-999.0,-999.0,-999,0.01,,,0.01,,2013-03-01 07:22:00,
2013-03-01 00:30:00,36.0,-99.9,-100.00,North,-999,-999.0,-999.0,-999,0.00,,,0.01,,2013-03-01 07:30:00,
2013-03-01 00:53:00,36.0,-99.9,-100.00,North,-999,-999.0,-999.0,-999,0.00,,,0.01,,2013-03-01 07:53:00,
2013-03-01 01:02:00,36.0,-99.9,-100.00,North,-999,-999.0,-999.0,-999,0.00,,,0.01,,2013-03-01 08:02:00,
2013-03-01 01:12:00,36.0,-99.9,-100.00,North,-999,-999.0,-999.0,-999,0.00,,,0.01,,2013-03-01 08:12:00,
2013-03-01 01:23:00,36.0,-99.9,-100.00,North,-999,-999.0,-999.0,-999,0.00,,,0.01,,2013-03-01 08:23:00,
2013-03-01 01:30:00,34.0,-99.9,-100.00,North,-999,-999.0,-999.0,-999,0.00,,,0.01,,2013-03-01 08:30:00,
2013-03-01 01:54:00,34.0,-99.9,-100.00,North,-999,-999.0,-999.0,-999,0.00,,,0.01,,2013-03-01 08:54:00,
2013-03-01 02:03:00,34.0,-99.9,-100.00,North,-999,-999.0,-999.0,-999,0.00,,,0.01,,2013-03-01 09:03:00,
2013-03-01 02:12:00,34.0,-99.9,-100.00,North,-999,-999.0,-999.0,-999,0.00,,,0.01,,2013-03-01 09:12:00,
2013-03-01 02:22:00,34.0,-99.9,-100.00,North,-999,-999.0,-999.0,-999,0.00,,,0.01,,2013-03-01 09:22:00,
2013-03-01 02:30:00,34.0,-99.9,-100.00,North,-999,-999.0,-999.0,-999,0.00,,,0.00,,2013-03-01 09:30:00,
2013-03-01 02:53:00,34.0,-99.9,-100.00,North,-999,-999.0,-999.0,-999,0.00,,,0.00,,2013-03-01 09:53:00,
2013-03-01 03:02:00,34.0,-99.9,-100.00,North,-999,-999.0,-999.0,-999,0.00,,,0.00,,2013-03-01 10:02:00,
2013-03-01 03:12:00,34.0,-99.9,-100.00,North,-999,-999.0,-999.0,-999,0.00,,,0.00,,2013-03-01 10:12:00,
2013-03-01 03:22:00,34.0,-99.9,-100.00,North,-999,-999.0,-999.0,-999,0.00,,,0.00,,2013-03-01 10:22:00,
2013-03-01 03:30:00,37.0,-99.9,-100.00,North,-999,-999.0,-999.0,-999,-99.99,,,-99.99,,2013-03-01 10:30:00,
2013-03-01 03:53:00,37.0,-99.9,-100.00,North,-999,-999.0,-999.0,-999,-99.99,,,-99.99,,2013-03-01 10:53:00,
2013-03-01 04:02:00,37.0,-99.9,-100.00,North,-999,-999.0,-999.0,-999,-99.99,,,-99.99,,2013-03-01 11:02:00,
2013-03-01 04:12:00,37.0,-99.9,-100.00,North,-999,-999.0,-999.0,-999,-99.99,,,-99.99,,2013-03-01 11:12:00,
2013-03-01 04:23:00,37.0,-99.9,-100.00,North,-999,-999.0,-999.0,-999,-99.99,,,-99.99,,2013-03-01 11:23:00,
2013-03-01 04:30:00,36.0,-99.9,-100.00,North,-999,-999.0,-999.0,-999,0.02,,,0.01,,2013-03-01 11:30:00,
2013-03-01 04:53:00,36.0,-99.9,-100.00,North,-999,-999.0,-999.0,-999,0.02,,,0.01,,2013-03-01 11:53:00,
2013-03-01 05:02:00,36.0,-99.9,-100.00,North,-999,-999.0,-999.0,-999,0.02,,,0.01,,2013-03-01 12:02:00,
2013-03-01 05:11:00,36.0,-99.9,-100.00,North,-999,-999.0,-999.0,-999,0.02,,,0.01,,2013-03-01 12:11:00,
2013-03-01 05:22:00,36.0,-99.9,-100.00,North,-999,-999.0,-999.0,-999,0.02,,,0.01,,2013-03-01 12:22:00,
2013-03-01 05:30:00,37.0,-99.9,-100.00,North,-999,-999.0,-999.0,-999,0.09,,,0.10,,2013-03-01 12:30:00,
2013-03-01 05:52:00,37.0,-99.9,-100.00,North,-999,-999.0,-999.0,-999,0.09,,,0.10,,2013-03-01 12:52:00,
2013-03-01 06:02:00,37.0,-99.9,-100.00,North,-999,-999.0,-999.0,-999,0.09,,,0.10,,2013-03-01 13:02:00,
2013-03-01 06:12:00,37.0,-99.9,-100.00,North,-999,-999.0,-999.0,-999,0.09,,,0.10,,2013-03-01 13:12:00,
2013-03-01 06:22:00,37.0,-99.9,-100.00,North,-999,-999.0,-999.0,-999,0.09,,,0.10,,2013-03-01 13:22:00,
2013-03-01 06:30:00,34.0,-99.9,-100.00,North,-999,-999.0,-999.0,-999,0.02,,,0.12,,2013-03-01 13:30:00,
2013-03-01 06:52:00,34.0,-99.9,-100.00,North,-999,-999.0,-999.0,-999,0.02,,,0.12,,2013-03-01 13:52:00,
2013-03-01 07:02:00,34.0,-99.9,-100.00,North,-999,-999.0,-999.0,-999,0.02,,,0.12,,2013-03-01 14:02:00,
2013-03-01 07:12:00,34.0,-99.9,-100.00,North,-999,-999.0,-999.0,-999,0.02,,,0.12,,2013-03-01 14:12:00,
2013-03-01 07:22:00,34.0,-99.9,-100.00,North,-999,-999.0,-999.0,-999,0.02,,,0.12,,2013-03-01 14:22:00,
2013-03-01 07:30:00,36.0,-99.9,-100.00,North,-999,-999.0,-999.0,-999,0.07,,,0.19,,2013-03-01 14:30:00,
2013-03-01 07:52:00,36.0,-99.9,-100.00,North,-999,-999.0,-999.0,-999,0.07,,,0.19,,2013-03-01 14:52:00,
2013-03-01 08:02:00,36.0,-99.9,-100.00,North,-999,-999.0,-999.0,-999,0.07,,,0.19,,2013-03-01 15:02:00,
2013-03-01 08:11:00,36.0,-99.9,-100.00,North,-999,-999.0,-999.0,-999,0.07,,,0.19,,2013-03-01 15:11:00,
2013-03-01 08:22:00,36.0,-99.9,-100.00,North,-999,-999.0,-999.0,-999,0.07,,,0.19,,2013-03-01 15:22:00,
2013-03-01 08:30:00,35.0,-99.9,-100.00,North,-999,-999.0,-999.0,-999,0.00,,,0.19,,2013-03-01 15:30:00,
2013-03-01 08:52:00,35.0,-99.9,-100.00,North,-999,-999.0,-999.0,-999,0.00,,,0.19,,2013-03-01 15:52:00,
2013-03-01 09:01:00,35.0,-99.9,-100.00,North,-999,-999.0,-999.0,-999,0.00,,,0.19,,2013-03-01 16:01:00,
2013-03-01 09:11:00,35.0,-99.9,-100.00,North,-999,-999.0,-999.0,-999,0.00,,,0.19,,2013-03-01 16:11:00,
2013-03-01 09:22:00,35.0,-99.9,-100.00,North,-999,-999.0,-999.0,-999,0.00,,,0.19,,2013-03-01 16:22:00,
2013-03-01 09:30:00,36.0,-99.9,-100.00,North,-999,-999.0,-999.0,-999,0.00,,,0.19,,2013-03-01 16:30:00,
2013-03-01 09:52:00,36.0,-99.9,-100.00,North,-999,-999.0,-999.0,-999,0.00,,,0.19,,2013-03-01 16:52:00,
2013-03-01 10:02:00,36.0,-99.9,-100.00,North,-999,-999.0,-999.0,-999,0.00,,,0.19,,2013-03-01 17:02:00,
2013-03-01 10:11:00,36.0,-99.9,-100.00,North,-999,-999.0,-999.0,-999,0.00,,,0.19,,2013-03-01 17:11:00,
2013-03-01 10:22:00,36.0,-99.9,-100.00,North,-999,-999.0,-999.0,-999,0.00,,,0.19,,2013-03-01 17:22:00,
2013-03-01 11:30:00,43.0,-99.9,-100.00,North,-999,-999.0,-999.0,-999,0.00,,,0.20,,2013-03-01 18:30:00,
2013-03-01 11:53:00,43.0,-99.9,-100.00,North,-999,-999.0,-999.0,-999,0.00,,,0.20,,2013-03-01 18:53:00,
2013-03-01 12:02:00,43.0,-99.9,-100.00,North,-999,-999.0,-999.0,-999,0.00,,,0.20,,2013-03-01 19:02:00,
2013-03-01 12:11:00,43.0,-99.9,-100.00,North,-999,-999.0,-999.0,-999,0.00,,,0.20,,2013-03-01 19:11:00,
2013-03-01 12:22:00,43.0,-99.9,-100.00,North,-999,-999.0,-999.0,-999,0.00,,,0.20,,2013-03-01 19:22:00,
2013-03-01 12:30:00,45.0,-99.9,-100.00,North,-999,-999.0,-999.0,-999,0.00,,,0.19,,2013-03-01 19:30:00,
2013-03-01 13:01:00,45.0,-99.9,-100.00,North,-999,-999.0,-999.0,-999,0.00,,,0.19,,2013-03-01 20:01:00,
2013-03-01 13:11:00,45.0,-99.9,-100.00,North,-999,-999.0,-999.0,-999,0.00,,,0.19,,2013-03-01 20:11:00,
2013-03-01 13:22:00,45.0,-99.9,-100.00,North,-999,-999.0,-999.0,-999,0.00,,,0.19,,2013-03-01 20:22:00,
2013-03-01 13:30:00,45.0,-99.9,-100.00,North,-999,-999.0,-999.0,-999,0.00,,,0.19,,2013-03-01 20:30:00,
2013-03-01 13:52:00,45.0,-99.9,-100.00,North,-999,-999.0,-999.0,-999,0.00,,,0.19,,2013-03-01 20:52:00,
2013-03-01 14:02:00,45.0,-99.9,-100.00,North,-999,-999.0,-999.0,-999,0.00,,,0.19,,2013-03-01 21:02:00,
2013-03-01 14:11:00,45.0,-99.9,-100.00,North,-999,-999.0,-999.0,-999,0.00,,,0.19,,2013-03-01 21:11:00,
2013-03-01 14:22:00,45.0,-99.9,-100.00,North,-999,-999.0,-999.0,-999,0.00,,,0.19,,2013-03-01 21:22:00,
2013-03-01 14:30:00,44.0,-99.9,-100.00,North,-999,-999.0,-999.0,-999,0.00,,,0.19,,2013-03-01 21:30:00,
2013-03-01 14:52:00,44.0,-99.9,-100.00,North,-999,-999.0,-999.0,-999,0.00,,,0.19,,2013-03-01 21:52:00,
2013-03-01 15:01:00,44.0,-99.9,-100.00,North,-999,-999.0,-999.0,-999,0.00,,,0.19,,2013-03-01 22:01:00,
2013-03-01 15:12:00,44.0,-99.9,-100.00,North,-999,-999.0,-999.0,-999,0.00,,,0.19,,2013-03-01 22:12:00,
2013-03-01 15:22:00,44.0,-99.9,-100.00,North,-999,-999.0,-999.0,-999,0.00,,,0.19,,2013-03-01 22:22:00,
2013-03-01 15:30:00,46.0,-99.9,-100.00,North,-999,-999.0,-999.0,-999,0.00,,,0.19,,2013-03-01 22:30:00,
2013-03-01 15:52:00,46.0,-99.9,-100.00,North,-999,-999.0,-999.0,-999,0.00,,,0.19,,2013-03-01 22:52:00,
2013-03-01 16:01:00,46.0,-99.9,-100.00,North,-999,-999.0,-999.0,-999,0.00,,,0.19,,2013-03-01 23:01:00,
2013-03-01 16:11:00,46.0,-99.9,-100.00,North,-999,-999.0,-999.0,-999,0.00,,,0.19,,2013-03-01 23:11:00,
2013-03-01 16:22:00,46.0,-99.9,-100.00,North,-999,-999.0,-999.0,-999,0.00,,,0.19,,2013-03-01 23:22:00,
2013-03-01 16:30:00,44.0,-99.9,-100.00,North,-999,-999.0,-999.0,-999,0.00,,,0.19,,2013-03-01 23:30:00,
2013-03-01 16:53:00,44.0,-99.9,-100.00,North,-999,-999.0,-999.0,-999,0.00,,,0.19,,2013-03-01 23:53:00,
2013-03-01 17:02:00,44.0,-99.9,-100.00,North,-999,-999.0,-999.0,-999,0.00,,,0.19,,2013-03-02 00:02:00,
2013-03-01 17:12:00,44.0,-99.9,-100.00,North,-999,-999.0,-999.0,-999,0.00,,,0.19,,2013-03-02 00:12:00,
2013-03-01 17:22:00,44.0,-99.9,-100.00,North,-999,-999.0,-999.0,-999,0.00,,,0.19,,2013-03-02 00:22:00,
2013-03-01 17:30:00,45.0,-99.9,-100.00,North,-999,-999.0,-999.0,-999,0.00,,,0.19,,2013-03-02 00:30:00,
2013-03-01 17:53:00,45.0,-99.9,-100.00,North,-999,-999.0,-999.0,-999,0.00,,,0.19,,2013-03-02 00:53:00,
2013-03-01 18:01:00,45.0,-99.9,-100.00,North,-999,-999.0,-999.0,-999,0.00,,,0.19,,2013-03-02 01:01:00,
2013-03-01 18:11:00,45.0,-99.9,-100.00,North,-999,-999.0,-999.0,-999,0.00,,,0.19,,2013-03-02 01:11:00,
2013-03-01 18:22:00,45.0,-99.9,-100.00,North,-999,-999.0,-999.0,-999,0.00,,,0.19,,2013-03-02 01:22:00,
2013-03-01 18:30:00,45.0,-99.9,-100.00,North,-999,-999.0,-999.0,-999,0.00,,,0.19,,2013-03-02 01:30:00,
2013-03-01 18:52:00,45.0,-99.9,-100.00,North,-999,-999.0,-999.0,-999,0.00,,,0.19,,2013-03-02 01:52:00,
2013-03-01 19:02:00,45.0,-99.9,-100.00,North,-999,-999.0,-999.0,-999,0.00,,,0.19,,2013-03-02 02:02:00,
2013-03-01 19:12:00,45.0,-99.9,-100.00,North,-999,-999.0,-999.0,-999,0.00,,,0.19,,2013-03-02 02:12:00,
2013-03-01 19:22:00,45.0,-99.9,-100.00,North,-999,-999.0,-999.0,-999,0.00,,,0.19,,2013-03-02 02:22:00,
2013-03-01 19:30:00,40.0,-99.9,-100.00,North,-999,-999.0,-999.0,-999,0.00,,,0.19,,2013-03-02 02:30:00,
2013-03-01 19:53:00,40.0,-99.9,-100.00,North,-999,-999.0,-999.0,-999,0.00,,,0.19,,2013-03-02 02:53:00,
2013-03-01 20:02:00,40.0,-99.9,-100.00,North,-999,-999.0,-999.0,-999,0.00,,,0.19,,2013-03-02 03:02:00,
2013-03-01 20:11:00,40.0,-99.9,-100.00,North,-999,-999.0,-999.0,-999,0.00,,,0.19,,2013-03-02 03:11:00,
2013-03-01 20:22:00,40.0,-99.9,-100.00,North,-999,-999.0,-999.0,-999,0.00,,,0.19,,2013-03-02 03:22:00,
2013-03-01 20:30:00,43.0,-99.9,-100.00,North,-999,-999.0,-999.0,-999,0.00,,,0.19,,2013-03-02 03:30:00,
2013-03-01 20:53:00,43.0,-99.9,-100.00,North,-999,-999.0,-999.0,-999,0.00,,,0.19,,2013-03-02 03:53:00,
2013-03-01 21:02:00,43.0,-99.9,-100.00,North,-999,-999.0,-999.0,-999,0.00,,,0.19,,2013-03-02 04:02:00,
2013-03-01 21:12:00,43.0,-99.9,-100.00,North,-999,-999.0,-999.0,-999,0.00,,,0.19,,2013-03-02 04:12:00,
2013-03-01 21:30:00,43.0,-99.9,-100.00,North,-999,-999.0,-999.0,-999,0.00,,,0.19,,2013-03-02 04:30:00,
2013-03-01 21:52:00,43.0,-99.9,-100.00,North,-999,-999.0,-999.0,-999,0.00,,,0.19,,2013-03-02 04:52:00,
2013-03-01 22:02:00,43.0,-99.9,-100.00,North,-999,-999.0,-999.0,-999,0.00,,,0.19,,2013-03-02 05:02:00,
2013-03-01 22:13:00,43.0,-99.9,-100.00,North,-999,-999.0,-999.0,-999,0.00,,,0.19,,2013-03-02 05:13:00,
2013-03-01 22:23:00,43.0,-99.9,-100.00,North,-999,-999.0,-999.0,-999,0.00,,,0.19,,2013-03-02 05:23:00,
2013-03-01 22:30:00,43.0,-99.9,-100.00,North,-999,-999.0,-999.0,-999,0.00,,,0.20,,2013-03-02 05:30:00,
2013-03-01 23:02:00,43.0,-99.9,-100.00,North,-999,-999.0,-999.0,-999,0.00,,,0.20,,2013-03-02 06:02:00,
2013-03-01 23:11:00,43.0,-99.9,-100.00,North,-999,-999.0,-999.0,-999,0.00,,,0.20,,2013-03-02 06:11:00,
2013-03-01 23:22:00,43.0,-99.9,-100.00,North,-999,-999.0,-999.0,-999,0.00,,,0.20,,2013-03-02 06:22:00,
2013-03-01 23:30:00,43.0,-99.9,-100.00,North,-999,-999.0,-999.0,-999,0.00,,,0.19,,2013-03-02 06:30:00,
2013-03-01 23:52:00,43.0,-99.9,-100.00,North,-999,-999.0,-999.0,-999,0.00,,,0.19,,2013-03-02 06:52:00,